Aberdeen, SD

10:21 PM CDT on August 30, 2016 (GMT -0500)
Aberdeen Regional

Weather History for KABR - December, 2011

Change the Weather History Date:

Friday, December 30, 2011

  Actual Average Record
Temperature  
Mean Temperature 34 °F 12 °F  
Max Temperature 38 °F 23 °F 52 °F (1980)
Min Temperature 29 °F 2 °F -34 °F (1917)
Degree Days  
Heating Degree Days 31 53  
Month to date heating degree days 1220 1477  
Since 1 July heating degree days 2899 3440  
Cooling Degree Days 0 0  
Month to date cooling degree days 0 0  
Year to date cooling degree days 729 525  
Moisture  
Dew Point 29 °F    
Average Humidity 84    
Maximum Humidity 92    
Minimum Humidity 75    
Precipitation  
Precipitation T in 0.02 in 0.70 in (2006)
Month to date precipitation 0.33 0.50  
Year to date precipitation 23.31 21.70  
Snow  
Snow 0.00 in - - ()
Month to date snowfall 0.5  
Since 1 July snowfall 0.6  
Snow Depth 0.00 in    
Sea Level Pressure  
Sea Level Pressure 29.71 in    
Wind  
Wind Speed 12 mph (WNW)    
Max Wind Speed 24 mph    
Max Gust Speed 30 mph    
Visibility 10 miles    
Events      
T = Trace of Precipitation, MM = Missing Value Source: NWS Daily Summary

Daily Weather History Graph

Daily Weather History Graph

Search for Another Location

Airport or City:

Trip Planner

Search our weather history database for the weather conditions in past years. The results will help you decide how hot, cold, wet, or windy it might be!

Date:

Astronomy

Dec. 30, 2011 Rise Set
Actual Time 8:13 AM CST 4:59 PM CST
Civil Twilight 7:39 AM CST 5:33 PM CST
Nautical Twilight 7:01 AM CST 6:10 PM CST
Astronomical Twilight 6:25 AM CST 6:46 PM CST
Moon 11:14 AM CST (12/30) 11:56 PM CST (12/30)
Length of Visible Light 9h 53m
Length of Day
8h 45m
Waxing Crescent, 36% of the Moon is Illuminated
Dec 30
Waxing Crescent
Jan 1
First Quarter
Jan 9
Full
Jan 16
Last Quarter
Jan 23
New

Hourly Weather History & Observations

Time (CST) Temp. Windchill Dew Point Humidity Pressure Visibility Wind Dir Wind Speed Gust Speed Precip Events Conditions
12:53 AM 32.0 °F 25.6 °F 30.0 °F 92% 29.55 in 10.0 mi WSW 6.9 mph - N/A   Clear
1:53 AM 34.0 °F 27.2 °F 30.9 °F 89% 29.55 in 10.0 mi West 8.1 mph - N/A   Clear
2:53 AM 35.6 °F 29.2 °F 30.2 °F 81% 29.53 in 10.0 mi West 8.1 mph - N/A   Mostly Cloudy
3:53 AM 37.0 °F 28.9 °F 34.0 °F 89% 29.59 in 10.0 mi West 12.7 mph - N/A   Overcast
4:33 AM 37.4 °F 27.8 °F 33.8 °F 87% 29.56 in 10.0 mi WNW 17.3 mph - N/A   Overcast
4:53 AM 37.9 °F 27.9 °F 34.0 °F 86% 29.60 in 10.0 mi WNW 19.6 mph - N/A   Overcast
5:27 AM 37.4 °F 26.6 °F 33.8 °F 87% 29.58 in 10.0 mi NW 21.9 mph 27.6 mph N/A   Overcast
5:53 AM 37.4 °F 26.9 °F 33.8 °F 87% 29.59 in 10.0 mi NW 20.7 mph 27.6 mph N/A   Overcast
6:23 AM 37.4 °F 27.2 °F 33.8 °F 87% 29.61 in 10.0 mi NW 19.6 mph 29.9 mph N/A   Overcast
6:53 AM 36.0 °F 25.0 °F 32.0 °F 86% 29.65 in 10.0 mi NW 20.7 mph 28.8 mph N/A   Overcast
7:31 AM 35.6 °F 25.5 °F 30.2 °F 81% 29.64 in 10.0 mi NW 17.3 mph 25.3 mph N/A   Overcast
7:53 AM 35.1 °F 24.8 °F 30.9 °F 85% 29.69 in 10.0 mi NW 17.3 mph - N/A   Overcast
8:36 AM 35.6 °F 25.9 °F 30.2 °F 81% 29.68 in 10.0 mi NW 16.1 mph - N/A   Overcast
8:53 AM 35.1 °F 25.5 °F 30.9 °F 85% 29.73 in 9.0 mi NW 15.0 mph - N/A   Overcast
9:53 AM 35.1 °F 25.5 °F 30.9 °F 85% 29.75 in 10.0 mi NW 15.0 mph - N/A   Overcast
10:53 AM 34.0 °F 23.0 °F 30.0 °F 85% 29.78 in 10.0 mi North 18.4 mph 24.2 mph N/A   Overcast
11:10 AM 33.8 °F 23.9 °F 30.2 °F 87% 29.74 in 10.0 mi NNW 15.0 mph - N/A   Overcast
11:53 AM 32.0 °F 22.1 °F 28.9 °F 88% 29.80 in 9.0 mi NNW 13.8 mph - N/A   Overcast
12:53 PM 32.0 °F 23.0 °F 28.0 °F 85% 29.80 in 10.0 mi NW 11.5 mph - N/A   Overcast
1:13 PM 32.0 °F 23.6 °F 28.4 °F 87% 29.76 in 10.0 mi NW 10.4 mph - N/A   Overcast
1:53 PM 32.0 °F 24.8 °F 28.0 °F 85% 29.80 in 9.0 mi NW 8.1 mph - N/A   Overcast
2:46 PM 33.8 °F 27.0 °F 26.6 °F 75% 29.75 in 10.0 mi NW 8.1 mph - 0.00 in   Overcast
2:53 PM 33.1 °F 26.9 °F 27.0 °F 78% 29.79 in 10.0 mi NW 6.9 mph - 0.00 in   Overcast
3:44 PM 32.0 °F 24.8 °F 26.6 °F 80% 29.77 in 10.0 mi WNW 8.1 mph - N/A   Overcast
3:53 PM 32.0 °F 24.8 °F 26.1 °F 79% 29.82 in 10.0 mi NW 8.1 mph - N/A   Overcast
4:53 PM 30.0 °F 24.1 °F 25.0 °F 82% 29.82 in 10.0 mi WSW 5.8 mph - N/A   Overcast
5:53 PM 30.0 °F - 25.0 °F 82% 29.83 in 10.0 mi Calm Calm - N/A   Overcast
6:53 PM 30.0 °F - 25.0 °F 82% 29.79 in 10.0 mi Calm Calm - N/A   Overcast
7:09 PM 28.4 °F 24.6 °F 24.8 °F 86% 29.75 in 10.0 mi East 3.5 mph - N/A   Overcast
7:53 PM 28.9 °F 22.8 °F 25.0 °F 85% 29.79 in 10.0 mi East 5.8 mph - N/A   Overcast
8:53 PM 28.9 °F 19.8 °F 26.1 °F 89% 29.79 in 10.0 mi South 10.4 mph - N/A   Overcast
9:53 PM 28.9 °F 19.2 °F 27.0 °F 92% 29.77 in 10.0 mi South 11.5 mph - N/A   Overcast
10:53 PM 30.0 °F 20.0 °F 27.0 °F 88% 29.75 in 10.0 mi South 12.7 mph - N/A   Overcast
11:53 PM 28.9 °F 19.2 °F 27.0 °F 92% 29.70 in 7.0 mi SE 11.5 mph - N/A   Overcast